Find Starlink 34174

NORAD ID: 64097 Int'l Des: 2025-110 Owner: SPXS Country: US Constellation: starlink operational
LEOCIRCULAR

Current View

Loading 3D Globe...

About Starlink 34174

Starlink 34174 (NORAD 64097) is a starlink constellation satellite (v2 mini) launched May 23, 2025 by SPXS of US. It operates in LEO, CIRCULAR orbit with a mass of 575.00 kg.

Upcoming Passes

Passes for default location (London). Set your location on the main map for personalized predictions.

Altitude History

Loading altitude history...

Two-Line Element Set

1 64097U 25110B 26236.25659786 .00025109 00000-0 75146-3 0 9995
2 64097 53.1589 325.1796 0002860 101.0799 259.0525 15.34411572 71587
Epoch: Aug 24, 2026 • Age: 29 hours

Current Status

Altitude 482.1 km
Apogee / Perigee N/A
Velocity 7.62 km/s
Sub-Earth Point -50.96°S, 106.02°E
Launch Date May 23, 2025
Age 1.2 years
Type internet

Technical Details

Classification Payload
Mass 575.00 kg
Dry Mass 530.00 kg
Total Mass 575.00 kg
Length 0.30 m
Diameter 4.10 m
Span 29.00 m
Shape Box + pan
Manufacturer SPXS
Bus Type Starlink V2MO
Phase Status In Orbit
Owner/State SPXS/US

Most Searched